Starlink 3387

operational
NORAD ID: 51125 Int'l Des: 2022-005 Owner: SPXS Country: US Constellation: starlink
LEOCIRCULAR

Starlink 3387について

説明を読み込み中...

リアルタイム位置

3D地球を読み込み中...

次回通過

高度履歴

Altitude vs Time

uPlot chart will show altitude changes over time

軌道要素

1 51125U 22005X 26061.13299713 .00000725 00000-0 63651-4 0 9992
2 51125 53.2190 333.0560 0001381 83.0265 277.0884 15.08839158227581
Epoch: Mar 2, 2026 • Age: 39 hours

現在のステータス

高度 545.4 km
速度 7.60 km/s
衛星直下点 53.36°N, 38.21°E
打ち上げ日 Jan 19, 2022
運用期間 4.1 years
タイプ internet

技術仕様

分類 Payload
質量 297.00 kg
乾燥質量 275.00 kg
総質量 297.00 kg
長さ 0.20 m
直径 2.80 m
スパン 9.00 m
形状 Box + pan
製造者 SPXS
バスタイプ Starlink
フェーズステータス In Orbit
所有者/国 SPXS/US

大規模コンステレーション

Loading constellations...